"2016-07-08 00:00:00",1789849,1.894,137.4,3.96,0.133,23.89,110.5554,26.32,27.31,21.71,0,111.4,12.98,27.17,99.4
"2016-07-08 00:00:30",1789850,1.939,125.1,6.766,0.267,23.86,110.5683,26.35,27.32,21.68,0,111.4,12.98,27.20,87.1
"2016-07-08 00:01:00",1789851,1.804,123.6,6.955,0.376,23.85,110.5688,26.36,27.34,21.76,0,111.4,12.98,27.20,85.6
"2016-07-08 00:01:30",1789852,2.119,139.3,6.852,0.234,23.86,110.5688,26.36,27.34,21.77,0,111.4,12.98,27.20,101.3
"2016-07-08 00:02:00",1789853,2.958,114,4.418,0.242,23.94,110.5688,26.36,27.36,22.08,0,111.4,12.98,27.20,76.0
"2016-07-08 00:02:30",1789854,3.526,123.2,5.354,0.307,24,110.5688,26.36,27.36,22.24,0,111.4,12.98,27.20,85.2
"2016-07-08 00:03:00",1789855,2.801,124.4,8.02,0.221,24.05,110.5688,26.36,27.35,22.2,0,111.4,12.98,27.20,86.4
"2016-07-08 00:03:30",1789856,2.928,126.2,3.931,0.301,24.06,110.5688,26.36,27.37,22.4,0,111.4,12.98,27.20,88.2
"2016-07-08 00:04:00",1789857,2.197,115.7,7.062,0.272,24.07,110.5688,26.36,27.35,22.23,0,111.4,12.98,27.20,77.7
"2016-07-08 00:04:30",1789858,1.904,112.1,9.45,0.157,24.04,110.5688,26.36,27.34,22.09,0,111.4,12.98,27.20,74.1
"2016-07-08 00:05:00",1789859,2.598,138.5,8.16,0.555,24.03,110.5688,26.36,27.35,22.2,0,111.4,12.98,27.20,100.5
"2016-07-08 00:05:30",1789860,3.775,113.9,7.111,0.419,24.06,110.5725,26.37,27.34,22.21,0,111.4,12.98,27.21,75.9
"2016-07-08 00:06:00",1789861,3.418,115.9,4.307,0.316,24.11,110.5772,26.38,27.34,22.05,0,111.4,12.97,27.22,77.9
"2016-07-08 00:06:30",1789862,2.788,124.7,4.228,0.383,24.11,110.5899,26.41,27.37,21.89,0,111.4,12.98,27.25,86.7
"2016-07-08 00:07:00",1789863,2.899,124.9,4.401,0.27,24.1,110.6,26.44,27.36,21.7,0,111.4,12.97,27.28,86.9
"2016-07-08 00:07:30",1789864,3.125,127.5,7.61,0.238,24.16,110.6022,26.44,27.38,21.28,0,111.5,12.98,27.29,89.5
"2016-07-08 00:08:00",1789865,3.14,135.5,4.388,0.169,24.16,110.6025,26.44,27.4,21.14,0,111.4,12.98,27.29,97.5
"2016-07-08 00:08:30",1789866,2.563,126.1,5.911,0.192,24.12,110.6025,26.44,27.42,21.68,0,111.5,12.98,27.29,88.1
"2016-07-08 00:09:00",1789867,2.399,122,8.23,0.265,24.12,110.6056,26.45,27.43,21.92,0,111.5,12.98,27.30,84.0
"2016-07-08 00:09:30",1789868,2.451,124,5.922,0.429,24.1,110.6098,26.46,27.42,22.05,0,111.5,12.98,27.31,86.0
"2016-07-08 00:10:00",1789869,2.428,129.7,9.28,0.254,24.09,110.6112,26.47,27.45,21.9,0,111.4,12.98,27.31,91.7
"2016-07-08 00:10:30",1789870,2.05,107,6.07,0.244,24.11,110.616,26.48,27.45,21.9,0,111.5,12.98,27.32,69.0
"2016-07-08 00:11:00",1789871,3.219,118.7,3.605,0.225,24.08,110.6255,26.5,27.46,21.85,0,111.5,12.98,27.35,80.7
"2016-07-08 00:11:30",1789872,2.772,116.4,2.875,0.211,24.08,110.6359,26.53,27.47,21.86,0,111.5,12.98,27.37,78.4
"2016-07-08 00:12:00",1789873,2.836,120.3,4.241,0.173,24.12,110.6361,26.53,27.48,21.94,0,111.5,12.98,27.37,82.3
"2016-07-08 00:12:30",1789874,2.88,126.4,5.323,0.202,24.14,110.6361,26.53,27.49,21.74,0,111.4,12.98,27.37,88.4
"2016-07-08 00:13:00",1789875,2.673,127.1,6.529,0.153,24.11,110.6361,26.53,27.5,21.73,0,111.4,12.98,27.37,89.1
"2016-07-08 00:13:30",1789876,2.612,117,7.52,0.359,24.21,110.6361,26.53,27.5,21.83,0,111.4,12.98,27.37,79.0
"2016-07-08 00:14:00",1789877,2.66,118.5,5.254,0.176,24.2,110.637,26.53,27.52,21.87,0,111.4,12.98,27.38,80.5
"2016-07-08 00:14:30",1789878,2.128,111.6,6.598,0.161,24.21,110.6406,26.54,27.52,21.87,0,111.4,12.98,27.39,73.6
"2016-07-08 00:15:00",1789879,2.559,111.5,5.696,0.211,24.15,110.6437,26.55,27.52,21.87,0,111.4,12.98,27.39,73.5
"2016-07-08 00:15:30",1789880,2.414,114.6,8.93,0.406,24.14,110.6459,26.55,27.54,22.03,0,111.4,12.98,27.40,76.6
"2016-07-08 00:16:00",1789881,2.172,108.4,3.523,0.305,24.13,110.651,26.57,27.55,22.02,0,111.4,12.98,27.41,70.4
"2016-07-08 00:16:30",1789882,2.18,125.5,8.33,0.183,24.1,110.6625,26.6,27.56,21.95,0,111.4,12.98,27.44,87.5
"2016-07-08 00:17:00",1789883,1.745,141,6.387,0.207,24.07,110.6698,26.62,27.56,22.1,0,111.4,12.98,27.46,103.0
"2016-07-08 00:17:30",1789884,1.883,137.2,5.948,0.532,24.11,110.6644,26.6,27.57,22.15,0,111.4,12.98,27.45,99.2
"2016-07-08 00:18:00",1789885,2.964,135.7,3.648,0.473,24.16,110.6431,26.55,27.57,22.18,0,111.4,12.98,27.39,97.7
"2016-07-08 00:18:30",1789886,2.823,133.9,3.778,0.452,24.22,110.6346,26.53,27.55,21.97,0,111.4,12.98,27.37,95.9
"2016-07-08 00:19:00",1789887,2.054,123,5.054,0.147,24.09,110.6201,26.49,27.52,22.15,0,111.4,12.98,27.33,85.0
"2016-07-08 00:19:30",1789888,2.39,128.1,7.775,0.386,24.18,110.6015,26.44,27.5,22.14,0,111.4,12.98,27.28,90.1
"2016-07-08 00:20:00",1789889,2.763,142.5,10.25,0.196,24.27,110.6,26.44,27.46,22.47,0,111.4,12.98,27.28,104.5
"2016-07-08 00:20:30",1789890,2.738,139.8,6.581,0.196,24.17,110.5954,26.42,27.43,22.25,0,111.4,12.98,27.27,101.8
"2016-07-08 00:21:00",1789891,2.615,122.2,5.08,0.131,24.13,110.5913,26.41,27.39,22.2,0,111.4,12.98,27.26,84.2
"2016-07-08 00:21:30",1789892,2.109,142.5,9.92,0.16,24.16,110.5921,26.42,27.41,21.89,0,111.4,12.97,27.26,104.5
"2016-07-08 00:22:00",1789893,1.681,132.3,3.802,0.346,24.13,110.5951,26.42,27.39,21.54,0,111.4,12.97,27.27,94.3
"2016-07-08 00:22:30",1789894,1.44,131.5,10.74,0.298,24.18,110.595,26.42,27.39,21.54,0,111.4,12.97,27.27,93.5
"2016-07-08 00:23:00",1789895,2.016,155.2,7.793,0.2,24.2,110.6015,26.44,27.42,21.6,0,111.4,12.97,27.28,117.2
"2016-07-08 00:23:30",1789896,2.066,161.8,7.895,0.212,24.14,110.6138,26.47,27.42,21.5,0,111.4,12.97,27.32,123.8
"2016-07-08 00:24:00",1789897,1.937,168.5,6.545,0.247,24.17,110.6278,26.51,27.42,21.22,0,111.4,12.97,27.35,130.5
"2016-07-08 00:24:30",1789898,1.989,143.9,9.35,0.216,24.07,110.6287,26.51,27.45,21.33,0,111.4,12.96,27.35,105.9
"2016-07-08 00:25:00",1789899,2.177,134.6,5.345,0.127,24.07,110.6317,26.52,27.47,21.56,0,111.4,12.97,27.36,96.6
"2016-07-08 00:25:30",1789900,2.22,125.8,6.459,0.361,24.09,110.6469,26.56,27.48,21.6,0,111.4,12.97,27.40,87.8
"2016-07-08 00:26:00",1789901,2.58,104,7.985,0.453,24.15,110.6615,26.59,27.51,21.84,0,111.4,12.98,27.44,66.0
"2016-07-08 00:26:30",1789902,3.374,118.1,4.382,0.418,24.01,110.6602,26.59,27.55,22.02,0,111.4,12.98,27.44,80.1
"2016-07-08 00:27:00",1789903,4.904,111.1,3.86,0.6,24.14,110.6614,26.59,27.54,22.12,0,111.4,12.98,27.44,73.1
"2016-07-08 00:27:30",1789904,4.65,106.9,2.507,0.346,24.18,110.6608,26.59,27.57,22.09,0,111.4,12.98,27.44,68.9
"2016-07-08 00:28:00",1789905,5.29,111.8,3.394,0.281,24.19,110.6614,26.59,27.58,22.15,0,111.4,12.98,27.44,73.8
"2016-07-08 00:28:30",1789906,5.916,110.3,3.083,0.359,24.32,110.6608,26.59,27.57,22.21,0,111.4,12.98,27.44,72.3
"2016-07-08 00:29:00",1789907,5.078,111.7,5.441,0.491,24.43,110.6614,26.59,27.59,22.07,0,111.4,12.98,27.44,73.7
"2016-07-08 00:29:30",1789908,4.98,107,4.348,0.222,24.47,110.6624,26.6,27.58,22.4,0,111.5,12.98,27.44,69.0
"2016-07-08 00:30:00",1789909,4.838,112.2,3.623,0.276,24.43,110.6628,26.6,27.59,22.35,0,111.4,12.98,27.44,74.2
"2016-07-08 00:30:30",1789910,4.609,109.3,6.364,0.335,24.45,110.6485,26.56,27.58,22.38,0,111.5,12.98,27.41,71.3
"2016-07-08 00:31:00",1789911,4.403,100.7,5.748,0.253,24.44,110.6381,26.53,27.57,22.43,0,111.4,12.98,27.38,62.7
"2016-07-08 00:31:30",1789912,4.492,104.2,6.711,0.23,24.4,110.6336,26.52,27.55,22.34,0,111.4,12.98,27.37,66.2
"2016-07-08 00:32:00",1789913,5.21,112,3.447,0.176,24.33,110.6349,26.53,27.56,22.2,0,111.4,12.98,27.37,74.0
"2016-07-08 00:32:30",1789914,4.726,111.3,2.276,0.485,24.39,110.6251,26.5,27.54,22.04,0,111.4,12.98,27.35,73.3
"2016-07-08 00:33:00",1789915,4.765,114.5,5.408,0.398,24.36,110.606,26.45,27.52,22.08,0,111.4,12.98,27.30,76.5
"2016-07-08 00:33:30",1789916,3.185,102.3,7.591,0.298,24.39,110.6025,26.44,27.52,22.05,0,111.4,12.98,27.29,64.3
"2016-07-08 00:34:00",1789917,3.234,103.5,13.61,0.606,24.32,110.6002,26.44,27.5,22.01,0,111.4,12.98,27.28,65.5
"2016-07-08 00:34:30",1789918,3.417,101.8,7.483,0.782,24.42,110.5882,26.41,27.47,22.04,0,111.4,12.98,27.25,63.8
"2016-07-08 00:35:00",1789919,4.405,102.7,5.714,0.292,24.44,110.5742,26.37,27.46,22.12,0,111.4,12.98,27.21,64.7
"2016-07-08 00:35:30",1789920,4.276,98,4.711,0.356,24.39,110.5688,26.36,27.45,22.24,0,111.4,12.98,27.20,60.0
"2016-07-08 00:36:00",1789921,4.56,106.6,3.052,0.296,24.41,110.5671,26.35,27.43,22.25,0,111.4,12.98,27.20,68.6
"2016-07-08 00:36:30",1789922,5.044,110.8,2.583,0.158,24.47,110.5542,26.32,27.42,22.22,0,111.4,12.98,27.16,72.8
"2016-07-08 00:37:00",1789923,4.726,102.4,5.378,0.325,24.5,110.5394,26.28,27.39,22.21,0,111.4,12.98,27.12,64.4
"2016-07-08 00:37:30",1789924,4.627,100.2,7.43,0.292,24.5,110.5352,26.27,27.37,22.26,0,111.4,12.98,27.11,62.2
"2016-07-08 00:38:00",1789925,4.204,94.9,5.758,0.267,24.54,110.5343,26.27,27.36,22.32,0,111.4,12.98,27.11,56.9
"2016-07-08 00:38:30",1789926,4.234,106.4,2.585,0.339,24.45,110.5225,26.24,27.36,22.19,0,111.4,12.98,27.08,68.4
"2016-07-08 00:39:00",1789927,4.056,111.2,9.79,0.327,24.43,110.5074,26.2,27.32,22.28,0,111.4,12.97,27.04,73.2
"2016-07-08 00:39:30",1789928,4.026,119.5,3.474,0.208,24.39,110.5015,26.18,27.31,22.07,0,111.4,12.97,27.03,81.5
"2016-07-08 00:40:00",1789929,4.293,119.5,3.124,0.167,24.39,110.5015,26.18,27.29,21.96,0,111.4,12.97,27.03,81.5
"2016-07-08 00:40:30",1789930,3.824,116.4,2.748,0.17,24.38,110.499,26.18,27.27,22.01,0,111.4,12.97,27.02,78.4
"2016-07-08 00:41:00",1789931,4.059,122.7,5.085,0.189,24.35,110.4805,26.13,27.25,21.94,0,111.4,12.97,26.97,84.7
"2016-07-08 00:41:30",1789932,3.457,122,4.676,0.183,24.36,110.4749,26.11,27.23,22.11,0,111.4,12.98,26.96,84.0
"2016-07-08 00:42:00",1789933,3.791,113.1,4.601,0.444,24.36,110.4687,26.1,27.22,22.35,0,111.4,12.97,26.94,75.1
"2016-07-08 00:42:30",1789934,4.164,114.4,5.925,0.187,24.41,110.4679,26.1,27.21,22.56,0,111.4,12.97,26.94,76.4
"2016-07-08 00:43:00",1789935,4.235,110.8,4.287,0.199,24.37,110.4679,26.1,27.2,22.57,0,111.4,12.98,26.94,72.8
"2016-07-08 00:43:30",1789936,4.752,120.7,3.131,0.35,24.35,110.4679,26.1,27.19,22.6,0,111.4,12.98,26.94,82.7
"2016-07-08 00:44:00",1789937,4.306,114.8,2.199,0.181,24.37,110.4673,26.1,27.19,22.6,0,111.4,12.98,26.94,76.8
"2016-07-08 00:44:30",1789938,3.868,107.5,4.494,0.234,24.41,110.4617,26.08,27.18,22.51,0,111.4,12.98,26.92,69.5
"2016-07-08 00:45:00",1789939,3.912,106.3,2.074,0.338,24.46,110.4578,26.07,27.18,22.46,0,111.4,12.98,26.91,68.3
"2016-07-08 00:45:30",1789940,4.971,113.2,5.516,0.225,24.39,110.4482,26.05,27.15,22.47,0,111.4,12.98,26.89,75.2
"2016-07-08 00:46:00",1789941,4.347,110.7,3.502,0.178,24.46,110.444,26.04,27.14,22.59,0,111.4,12.98,26.88,72.7
"2016-07-08 00:46:30",1789942,4.88,117.7,1.474,0.254,24.44,110.4376,26.02,27.13,22.63,0,111.4,12.98,26.86,79.7
"2016-07-08 00:47:00",1789943,4.67,107.3,3.219,0.329,24.47,110.4345,26.01,27.13,22.5,0,111.4,12.98,26.85,69.3
"2016-07-08 00:47:30",1789944,4.01,113,4.024,0.277,24.4,110.4361,26.02,27.1,22.45,0,111.4,12.98,26.86,75.0
"2016-07-08 00:48:00",1789945,3.5,114.5,6.612,0.276,24.4,110.4352,26.01,27.1,22.63,0,111.4,12.98,26.86,76.5
"2016-07-08 00:48:30",1789946,3.346,102.5,6.52,0.188,24.41,110.4348,26.01,27.1,22.53,0,111.4,12.98,26.85,64.5
"2016-07-08 00:49:00",1789947,4.112,102.3,5.916,0.403,24.48,110.4334,26.01,27.09,22.56,0,111.4,12.98,26.85,64.3
"2016-07-08 00:49:30",1789948,4.265,105.5,4.809,0.139,24.47,110.4274,25.99,27.08,22.59,0,111.4,12.98,26.84,67.5
"2016-07-08 00:50:00",1789949,4.055,102,5.691,0.453,24.49,110.4225,25.98,27.06,22.63,0,111.4,12.98,26.82,64.0
"2016-07-08 00:50:30",1789950,3.688,96.4,7.826,0.497,24.5,110.4228,25.98,27.06,22.69,0,111.4,12.98,26.82,58.4
"2016-07-08 00:51:00",1789951,3.941,107,4.594,0.294,24.49,110.4291,26,27.05,22.67,0,111.4,12.98,26.84,69.0
"2016-07-08 00:51:30",1789952,4.311,112.7,3.986,0.313,24.46,110.4306,26,27.05,22.75,0,111.4,12.98,26.84,74.7
"2016-07-08 00:52:00",1789953,4.378,117.6,3.992,0.253,24.43,110.4334,26.01,27.06,22.65,0,111.4,12.98,26.85,79.6
"2016-07-08 00:52:30",1789954,4.472,116.3,3.539,0.23,24.46,110.435,26.01,27.04,22.66,0,111.4,12.99,26.86,78.3
"2016-07-08 00:53:00",1789955,3.925,109.3,4.692,0.332,24.49,110.435,26.01,27.05,22.69,0,111.4,12.98,26.86,71.3
"2016-07-08 00:53:30",1789956,3.126,114.6,7.262,0.427,24.45,110.4331,26.01,27.04,22.71,0,111.4,12.99,26.85,76.6
"2016-07-08 00:54:00",1789957,3.632,104.8,5.24,0.461,24.48,110.4349,26.01,27.05,22.78,0,111.4,12.98,26.85,66.8
"2016-07-08 00:54:30",1789958,3.921,107.7,3.384,0.214,24.4,110.4354,26.01,27.04,22.88,0,111.4,12.98,26.86,69.7
"2016-07-08 00:55:00",1789959,4.395,110.7,6.151,0.375,24.38,110.4363,26.02,27.04,22.58,0,111.4,12.98,26.86,72.7
"2016-07-08 00:55:30",1789960,4.323,113.1,4.056,0.436,24.46,110.4351,26.01,27.02,22.54,0,111.4,12.98,26.86,75.1
"2016-07-08 00:56:00",1789961,3.859,109.3,4.134,0.138,24.43,110.4321,26.01,27.04,22.44,0,111.4,12.98,26.85,71.3
"2016-07-08 00:56:30",1789962,4.364,110.2,3.14,0.188,24.42,110.4315,26,27.01,22.47,0,111.4,12.98,26.85,72.2
"2016-07-08 00:57:00",1789963,4.409,112.9,2.783,0.11,24.48,110.429,26,27.02,22.48,0,111.4,12.98,26.84,74.9
"2016-07-08 00:57:30",1789964,4.213,120.4,1.362,0.194,24.51,110.4315,26,27.03,22.45,0,111.4,12.98,26.85,82.4
"2016-07-08 00:58:00",1789965,4.209,119.7,1.597,0.316,24.49,110.4315,26,27.04,22.56,0,111.4,12.98,26.85,81.7
"2016-07-08 00:58:30",1789966,4.248,119.4,6.982,0.202,24.49,110.4331,26.01,27.02,22.64,0,111.4,12.98,26.85,81.4
"2016-07-08 00:59:00",1789967,4.34,104.2,3.338,0.128,24.54,110.4358,26.01,27.02,22.5,0,111.4,12.98,26.86,66.2
"2016-07-08 00:59:30",1789968,3.835,101.4,1.927,0.093,24.45,110.4358,26.01,27.04,22.5,0,111.4,12.98,26.86,63.4
"2016-07-08 01:00:00",1789969,4.024,102.4,3.716,0.277,24.47,110.4374,26.02,27.02,22.54,0,111.4,12.98,26.86,64.4
"2016-07-08 01:00:30",1789970,4.115,109.5,3.597,0.279,24.46,110.4371,26.02,27.02,22.46,0,111.4,12.98,26.86,71.5
"2016-07-08 01:01:00",1789971,3.68,109.8,3.528,0.318,24.4,110.4374,26.02,27.01,22.4,0,111.4,12.98,26.86,71.8
"2016-07-08 01:01:30",1789972,4.262,111.3,4.532,0.143,24.46,110.4377,26.02,27.02,22.37,0,111.4,12.98,26.86,73.3
"2016-07-08 01:02:00",1789973,3.579,115.7,5.687,0.224,24.49,110.4377,26.02,27.01,22.4,0,111.4,12.99,26.86,77.7
"2016-07-08 01:02:30",1789974,3.29,116.6,4.74,0.268,24.43,110.4369,26.02,27.02,22.43,0,111.4,12.99,26.86,78.6
"2016-07-08 01:03:00",1789975,3.473,110.4,2.789,0.147,24.44,110.4329,26.01,27,22.41,0,111.4,12.99,26.85,72.4
"2016-07-08 01:03:30",1789976,3.516,114.6,1.939,0.141,24.47,110.429,26,27.01,22.41,0,111.4,12.99,26.84,76.6
"2016-07-08 01:04:00",1789977,3.84,113.2,3.75,0.153,24.45,110.4251,25.99,27.01,22.46,0,111.4,12.99,26.83,75.2
"2016-07-08 01:04:30",1789978,3.671,113.2,2.048,0.194,24.51,110.4214,25.98,27.01,22.4,0,111.4,12.99,26.82,75.2
"2016-07-08 01:05:00",1789979,3.117,112.6,5.818,0.172,24.5,110.4175,25.97,27,22.37,0,111.4,12.99,26.81,74.6
"2016-07-08 01:05:30",1789980,3.548,109.3,2.175,0.206,24.49,110.4147,25.96,27,22.38,0,111.4,12.99,26.80,71.3
"2016-07-08 01:06:00",1789981,3.098,116.3,4.371,0.221,24.44,110.4127,25.96,27,22.37,0,111.4,12.99,26.80,78.3
"2016-07-08 01:06:30",1789982,3.103,118.6,2.446,0.175,24.44,110.4125,25.95,27,22.39,0,111.4,12.99,26.80,80.6
"2016-07-08 01:07:00",1789983,3.287,116.2,1.847,0.189,24.52,110.4122,25.95,27,22.43,0,111.4,12.99,26.80,78.2
"2016-07-08 01:07:30",1789984,2.883,119.6,1.827,0.176,24.48,110.4122,25.95,27.01,22.45,0,111.4,12.99,26.80,81.6
"2016-07-08 01:08:00",1789985,2.612,125.4,3.039,0.151,24.45,110.4125,25.95,27.01,22.45,0,111.4,12.99,26.80,87.4
"2016-07-08 01:08:30",1789986,2.348,130.6,2.712,0.097,24.44,110.4125,25.95,27,22.46,0,111.4,12.99,26.80,92.6
"2016-07-08 01:09:00",1789987,2.254,123.2,7.948,0.136,24.46,110.4125,25.95,27,22.51,0,111.4,12.99,26.80,85.2
"2016-07-08 01:09:30",1789988,2.381,117.5,4.166,0.227,24.43,110.4136,25.96,27,22.52,0,111.3,12.99,26.80,79.5
"2016-07-08 01:10:00",1789989,3.081,108.2,3.14,0.193,24.39,110.4153,25.96,27.01,22.47,0,111.3,12.99,26.80,70.2
"2016-07-08 01:10:30",1789990,3.226,102.6,2.85,0.188,24.39,110.4164,25.96,27,22.52,0,111.3,12.99,26.81,64.6
"2016-07-08 01:11:00",1789991,3.416,104.4,2.761,0.2,24.44,110.4228,25.98,27.01,22.49,0,111.4,12.99,26.82,66.4
"2016-07-08 01:11:30",1789992,3.55,103.1,1.496,0.079,24.47,110.4226,25.98,27.01,22.43,0,111.4,12.99,26.82,65.1
"2016-07-08 01:12:00",1789993,2.994,115.2,5.263,0.189,24.47,110.4254,25.99,27.02,22.48,0,111.4,12.99,26.83,77.2
"2016-07-08 01:12:30",1789994,2.848,121,1.317,0.069,24.49,110.4282,25.99,27.02,22.4,0,111.4,12.98,26.84,83.0
"2016-07-08 01:13:00",1789995,2.731,114.9,5.737,0.215,24.49,110.4304,26,27.01,22.41,0,111.4,12.98,26.84,76.9
"2016-07-08 01:13:30",1789996,3.289,98,2.414,0.128,24.47,110.4321,26,27.02,22.74,0,111.4,12.98,26.85,60.0
"2016-07-08 01:14:00",1789997,3.279,94.9,3.495,0.204,24.47,110.4341,26.01,27.01,22.76,0,111.4,12.98,26.85,56.9
"2016-07-08 01:14:30",1789998,3.18,103.9,3.859,0.187,24.5,110.4371,26.02,27.02,22.64,0,111.4,12.98,26.86,65.9
"2016-07-08 01:15:00",1789999,2.833,101,4.814,0.236,24.5,110.4374,26.02,27.03,22.49,0,111.4,12.98,26.86,63.0
"2016-07-08 01:15:30",1790000,2.756,99.9,2.041,0.127,24.61,110.4377,26.02,27.03,22.42,0,111.4,12.98,26.86,61.9
"2016-07-08 01:16:00",1790001,2.991,95.8,4.429,0.127,24.66,110.4377,26.02,27.02,22.4,0,111.4,12.98,26.86,57.8
"2016-07-08 01:16:30",1790002,3.308,92.1,2.226,0.115,24.49,110.4377,26.02,27.05,22.47,0,111.4,12.98,26.86,54.1
"2016-07-08 01:17:00",1790003,3.071,102.9,6.284,0.142,24.56,110.4377,26.02,27.05,22.37,0,111.4,12.98,26.86,64.9
"2016-07-08 01:17:30",1790004,2.847,107.4,3.748,0.062,24.56,110.4377,26.02,27.04,22.36,0,111.4,12.98,26.86,69.4
"2016-07-08 01:18:00",1790005,2.751,98.6,4.706,0.209,24.48,110.4377,26.02,27.05,22.41,0,111.4,12.98,26.86,60.6
"2016-07-08 01:18:30",1790006,2.829,100.3,2.929,0.137,24.53,110.4374,26.02,27.04,22.39,0,111.4,12.99,26.86,62.3
"2016-07-08 01:19:00",1790007,2.995,105.2,4.996,0.117,24.54,110.4369,26.02,27.04,22.45,0,111.4,12.99,26.86,67.2
"2016-07-08 01:19:30",1790008,3.209,101.1,1.427,0.241,24.51,110.4341,26.01,27.05,22.48,0,111.4,12.99,26.85,63.1
"2016-07-08 01:20:00",1790009,3.395,105.9,3.135,0.129,24.55,110.4285,26,27.05,22.38,0,111.4,12.99,26.84,67.9
"2016-07-08 01:20:30",1790010,2.996,111.2,1.795,0.199,24.58,110.4198,25.97,27.04,22.4,0,111.4,12.99,26.82,73.2
"2016-07-08 01:21:00",1790011,2.898,114.9,1.814,0.142,24.54,110.4153,25.96,27.04,22.4,0,111.4,12.99,26.80,76.9
"2016-07-08 01:21:30",1790012,2.674,118,3.581,0.117,24.61,110.4134,25.96,27.04,22.42,0,111.4,12.99,26.80,80.0
"2016-07-08 01:22:00",1790013,2.503,118.9,2.35,0.118,24.55,110.4117,25.95,27.04,22.39,0,111.4,12.99,26.79,80.9
"2016-07-08 01:22:30",1790014,2.891,117.6,2.334,0.265,24.6,110.409,25.95,27.03,22.36,0,111.4,12.99,26.79,79.6
"2016-07-08 01:23:00",1790015,3.293,119,2.082,0.1,24.61,110.4119,25.95,27.04,22.37,0,111.4,12.99,26.80,81.0
"2016-07-08 01:23:30",1790016,3.319,111.2,4.577,0.233,24.55,110.4109,25.95,27.03,22.36,0,111.4,12.99,26.79,73.2
"2016-07-08 01:24:00",1790017,3.722,106.6,1.705,0.072,24.71,110.4118,25.95,27.02,22.38,0,111.4,12.99,26.80,68.6
"2016-07-08 01:24:30",1790018,3.477,105.8,1.598,0.128,24.65,110.4174,25.97,27.02,22.52,0,111.4,12.99,26.81,67.8
"2016-07-08 01:25:00",1790019,3.995,105.9,1.64,0.182,24.66,110.4205,25.98,27.02,22.44,0,111.4,12.99,26.82,67.9
"2016-07-08 01:25:30",1790020,4.062,104.8,1.593,0.11,24.73,110.4248,25.99,27.01,22.33,0,111.4,12.99,26.83,66.8
"2016-07-08 01:26:00",1790021,3.545,110.4,2.269,0.159,24.6,110.426,25.99,27,22.34,0,111.4,12.99,26.83,72.4
"2016-07-08 01:26:30",1790022,3.78,107.5,3.774,0.243,24.6,110.4273,25.99,27.01,22.31,0,111.4,12.99,26.84,69.5
"2016-07-08 01:27:00",1790023,3.972,104.5,2.238,0.089,24.64,110.4272,25.99,27,22.4,0,111.4,12.99,26.83,66.5
"2016-07-08 01:27:30",1790024,4.2,104.7,1.265,0.16,24.82,110.4187,25.97,26.99,22.86,0,111.4,12.99,26.81,66.7
"2016-07-08 01:28:00",1790025,3.79,113.7,3.141,0.126,24.71,110.4071,25.94,27,22.72,0,111.4,12.99,26.78,75.7
"2016-07-08 01:28:30",1790026,3.87,112.1,1.79,0.095,24.84,110.4011,25.93,26.99,22.46,0,111.4,12.99,26.77,74.1
"2016-07-08 01:29:00",1790027,3.866,113.1,1.242,0.128,24.91,110.3979,25.92,26.97,22.39,0,111.4,12.99,26.76,75.1
"2016-07-08 01:29:30",1790028,3.842,114.7,2.359,0.088,24.92,110.3989,25.92,26.97,22.46,0,111.4,12.99,26.76,76.7
"2016-07-08 01:30:00",1790029,3.85,120.2,1.712,0.16,24.81,110.3986,25.92,26.96,22.67,0,111.4,12.99,26.76,82.2
"2016-07-08 01:30:30",1790030,3.858,121.7,2.106,0.1,24.86,110.398,25.92,26.96,22.82,0,111.4,12.99,26.76,83.7
"2016-07-08 01:31:00",1790031,3.685,121.3,3.166,0.131,24.8,110.3889,25.89,26.95,22.8,0,111.4,12.99,26.74,83.3
"2016-07-08 01:31:30",1790032,3.86,122.5,1.434,0.135,24.8,110.3765,25.86,26.94,22.88,0,111.4,12.99,26.70,84.5
"2016-07-08 01:32:00",1790033,3.829,120.5,2.442,0.117,24.77,110.3755,25.86,26.92,22.71,0,111.4,12.99,26.70,82.5
"2016-07-08 01:32:30",1790034,3.834,115,3.231,0.189,24.68,110.3705,25.85,26.91,22.87,0,111.4,12.99,26.69,77.0
"2016-07-08 01:33:00",1790035,3.622,111.4,3.045,0.245,24.76,110.3717,25.85,26.9,22.99,0,111.3,12.99,26.69,73.4
"2016-07-08 01:33:30",1790036,3.551,114.2,4.214,0.14,24.66,110.3717,25.85,26.9,22.93,0,111.4,12.99,26.69,76.2
"2016-07-08 01:34:00",1790037,3.485,110.6,3.452,0.193,24.73,110.3632,25.83,26.88,23.08,0,111.3,12.99,26.67,72.6
"2016-07-08 01:34:30",1790038,3.466,112.7,3.361,0.15,24.7,110.3492,25.79,26.87,22.94,0,111.3,12.99,26.63,74.7
"2016-07-08 01:35:00",1790039,3.428,108.9,3.282,0.211,24.84,110.3427,25.78,26.86,22.92,0,111.3,12.99,26.62,70.9
"2016-07-08 01:35:30",1790040,3.607,112.4,1.439,0.097,24.8,110.3399,25.77,26.84,22.7,0,111.3,12.99,26.61,74.4
"2016-07-08 01:36:00",1790041,3.891,113.1,2.019,0.185,24.76,110.3396,25.77,26.83,22.57,0,111.3,12.99,26.61,75.1
"2016-07-08 01:36:30",1790042,3.985,114.4,2.292,0.213,24.83,110.3391,25.77,26.82,22.71,0,111.3,12.99,26.61,76.4
"2016-07-08 01:37:00",1790043,3.787,117.1,2.323,0.224,24.81,110.332,25.75,26.8,22.66,0,111.3,12.99,26.59,79.1
"2016-07-08 01:37:30",1790044,3.615,118.7,1.714,0.158,24.73,110.3186,25.71,26.78,22.72,0,111.3,13,26.55,80.7
"2016-07-08 01:38:00",1790045,3.538,122.9,1.408,0.153,24.84,110.3099,25.69,26.77,22.73,0,111.3,13,26.53,84.9
"2016-07-08 01:38:30",1790046,3.513,116.2,1.848,0.124,24.95,110.3065,25.68,26.76,22.71,0,111.3,13,26.52,78.2
"2016-07-08 01:39:00",1790047,3.521,112.1,2.46,0.31,24.99,110.3065,25.68,26.75,22.72,0,111.3,13,26.52,74.1
"2016-07-08 01:39:30",1790048,3.782,109.7,4.12,0.136,25.1,110.3065,25.68,26.74,22.66,0,111.3,13,26.52,71.7
"2016-07-08 01:40:00",1790049,3.908,115.3,3.647,0.223,25.16,110.3017,25.67,26.73,22.66,0,111.3,13,26.51,77.3
"2016-07-08 01:40:30",1790050,4.462,110.4,0.933,0.053,25.27,110.2849,25.63,26.72,22.73,0,111.3,13,26.47,72.4
"2016-07-08 01:41:00",1790051,4.226,109.2,2.543,0.127,25.17,110.2751,25.6,26.69,22.82,0,111.3,13,26.44,71.2
"2016-07-08 01:41:30",1790052,4.398,116.2,2.589,0.182,25.13,110.2728,25.6,26.68,22.7,0,111.3,13,26.44,78.2
"2016-07-08 01:42:00",1790053,4.568,107.8,2.122,0.102,24.91,110.2728,25.6,26.67,22.97,0,111.3,13,26.44,69.8
"2016-07-08 01:42:30",1790054,4.849,107.3,1.367,0.146,25.04,110.268,25.58,26.65,23.14,0,111.3,13,26.42,69.3
"2016-07-08 01:43:00",1790055,5.105,108.4,2.109,0.15,24.92,110.2473,25.53,26.65,23.39,0,111.3,13,26.37,70.4
"2016-07-08 01:43:30",1790056,5.314,108.1,1.835,0.236,24.91,110.2397,25.51,26.63,23.61,0,111.3,13,26.35,70.1
"2016-07-08 01:44:00",1790057,5.488,108.8,3.334,0.246,24.92,110.2391,25.51,26.61,23.87,0,111.3,13,26.35,70.8
"2016-07-08 01:44:30",1790058,5.302,113.6,3.926,0.36,24.87,110.233,25.49,26.59,24.07,0,111.3,13,26.33,75.6
"2016-07-08 01:45:00",1790059,5.27,108.9,1.493,0.086,24.83,110.2141,25.44,26.58,24.24,0,111.3,13,26.29,70.9
"2016-07-08 01:45:30",1790060,5.352,109.2,2.016,0.098,24.83,110.2055,25.42,26.56,24.53,0,111.3,13,26.26,71.2
"2016-07-08 01:46:00",1790061,5.789,106.2,1.674,0.176,24.93,110.2064,25.42,26.54,24.53,0,111.3,13,26.27,68.2
"2016-07-08 01:46:30",1790062,5.724,104.3,0.984,0.126,24.96,110.1924,25.39,26.51,24.31,0,111.3,13,26.23,66.3
"2016-07-08 01:47:00",1790063,5.673,105.9,1.314,0.068,24.93,110.1791,25.35,26.5,24.11,0,111.3,13,26.20,67.9
"2016-07-08 01:47:30",1790064,5.497,105.6,1.406,0.131,25,110.1764,25.35,26.47,24.04,0,111.3,13,26.19,67.6
"2016-07-08 01:48:00",1790065,5.407,103.4,1.247,0.123,25,110.1739,25.34,26.45,23.91,0,111.3,13,26.18,65.4